Es ist keine erh√∂hte Aufmerksamkeit aufgrund des Wetters notwendig.    Es gibt keine Warnungen.
Webcam Vorhersage DWD Regenradar Wetterlage NRW Blitze Wind GFS-Modell
webcam


Kleve -D√ľffelward more information Kleve -D√ľffelward


Goch more information Goch


Thunder radar more information blitzortung!


Weitere Templates dieser Seite und andere Webseiten:

Meteotemplate

Awekas - Template

weather34 - Template

Wetter aus Willich

Hubert Reyers' Wetter


te
World Weather Websites
 

METAR-Meldungen aus der Umgebung

   
EHDL - Nijmegen
Aktualisierung: 23-09-2021 19:25
Bew√∂lkt  
Bew√∂lkt  
   Wind: WSW 13 km/h
Wind: WSW 13 km/h
Temperatur: 17°C
Taupunkt: 13°C
Luftfeuchte: 77%
Luftdruck: 1016 hPa
Bewölkt: Bewölkt
Sichtbarkeit: More than 10 km
Bewölkung: Stark bewölkt 2400 ft,
Bewölkt 2700 ft
EHDL 231725Z AUTO 25007KT 200V360 9999 BKN024 OVC027 17/13 Q1016 WHT
EHDL - Arnhem
Aktualisierung: 23-09-2021 19:25
Bew√∂lkt  
Bew√∂lkt  
   Wind: WSW 13 km/h
Wind: WSW 13 km/h
Temperatur: 17°C
Taupunkt: 13°C
Luftfeuchte: 77%
Luftdruck: 1016 hPa
Bewölkt: Bewölkt
Sichtbarkeit: More than 10 km
Bewölkung: Stark bewölkt 2400 ft,
Bewölkt 2700 ft
EHDL 231725Z AUTO 25007KT 200V360 9999 BKN024 OVC027 17/13 Q1016 WHT
EHAM - Amsterdam
Aktualisierung: 23-09-2021 19:25
Leichter Niederschlag m√∂glich, Stark bew√∂lkt  
Leichter Niederschlag m√∂glich, Stark bew√∂lkt  
   Wind: WSW 25.9 km/h
Wind: WSW 25.9 km/h
Temperatur: 18°C
Taupunkt: 15°C
Luftfeuchte: 83%
Luftdruck: 1015 hPa
Bewölkt: Stark bewölkt
Sichtbarkeit: More than 10 km
Bewölkung: leicht bewölkt 1700 ft,
Teilweise bewölkt 2000 ft,
Stark bewölkt 3000 ft
EHAM 231725Z 25014KT 230V290 9999 -RA FEW017 SCT020 BKN030 18/15 Q1015 NOSIG
EHDL - Ede
Aktualisierung: 23-09-2021 19:25
Bew√∂lkt  
Bew√∂lkt  
   Wind: WSW 13 km/h
Wind: WSW 13 km/h
Temperatur: 17°C
Taupunkt: 13°C
Luftfeuchte: 77%
Luftdruck: 1016 hPa
Bewölkt: Bewölkt
Sichtbarkeit: More than 10 km
Bewölkung: Stark bewölkt 2400 ft,
Bewölkt 2700 ft
EHDL 231725Z AUTO 25007KT 200V360 9999 BKN024 OVC027 17/13 Q1016 WHT
EHDL - Emmen
Aktualisierung: 23-09-2021 19:25
Bew√∂lkt  
Bew√∂lkt  
   Wind: WSW 13 km/h
Wind: WSW 13 km/h
Temperatur: 17°C
Taupunkt: 13°C
Luftfeuchte: 77%
Luftdruck: 1016 hPa
Bewölkt: Bewölkt
Sichtbarkeit: More than 10 km
Bewölkung: Stark bewölkt 2400 ft,
Bewölkt 2700 ft
EHDL 231725Z AUTO 25007KT 200V360 9999 BKN024 OVC027 17/13 Q1016 WHT
EHAM - Den Haag
Aktualisierung: 23-09-2021 19:25
Leichter Niederschlag m√∂glich, Stark bew√∂lkt  
Leichter Niederschlag m√∂glich, Stark bew√∂lkt  
   Wind: WSW 25.9 km/h
Wind: WSW 25.9 km/h
Temperatur: 18°C
Taupunkt: 15°C
Luftfeuchte: 83%
Luftdruck: 1015 hPa
Bewölkt: Stark bewölkt
Sichtbarkeit: More than 10 km
Bewölkung: leicht bewölkt 1700 ft,
Teilweise bewölkt 2000 ft,
Stark bewölkt 3000 ft
EHAM 231725Z 25014KT 230V290 9999 -RA FEW017 SCT020 BKN030 18/15 Q1015 NOSIG
EHAM - Apeldoorn
Aktualisierung: 23-09-2021 19:25
Leichter Niederschlag m√∂glich, Stark bew√∂lkt  
Leichter Niederschlag m√∂glich, Stark bew√∂lkt  
   Wind: WSW 25.9 km/h
Wind: WSW 25.9 km/h
Temperatur: 18°C
Taupunkt: 15°C
Luftfeuchte: 83%
Luftdruck: 1015 hPa
Bewölkt: Stark bewölkt
Sichtbarkeit: More than 10 km
Bewölkung: leicht bewölkt 1700 ft,
Teilweise bewölkt 2000 ft,
Stark bewölkt 3000 ft
EHAM 231725Z 25014KT 230V290 9999 -RA FEW017 SCT020 BKN030 18/15 Q1015 NOSIG
EHAM - Leeuwarden
Aktualisierung: 23-09-2021 19:25
Leichter Niederschlag m√∂glich, Stark bew√∂lkt  
Leichter Niederschlag m√∂glich, Stark bew√∂lkt  
   Wind: WSW 25.9 km/h
Wind: WSW 25.9 km/h
Temperatur: 18°C
Taupunkt: 15°C
Luftfeuchte: 83%
Luftdruck: 1015 hPa
Bewölkt: Stark bewölkt
Sichtbarkeit: More than 10 km
Bewölkung: leicht bewölkt 1700 ft,
Teilweise bewölkt 2000 ft,
Stark bewölkt 3000 ft
EHAM 231725Z 25014KT 230V290 9999 -RA FEW017 SCT020 BKN030 18/15 Q1015 NOSIG
TNCC - Willemstad
Aktualisierung: 23-09-2021 19:00
Teilweise bew√∂lkt  
Teilweise bew√∂lkt  
   Wind: Osten 22.2 km/h
Wind: Osten 22.2 km/h
Temperatur: 32°C
Hitzeindex: 42°C
Taupunkt: 27°C
Luftfeuchte: 75%
Luftdruck: 1010 hPa
Bewölkt: Teilweise bewölkt
Sichtbarkeit: More than 10 km
Bewölkung: Teilweise bewölkt 2800 ft
TNCC 231700Z 08012KT 9999 SCT028 32/27 Q1010 NOSIG
EHEH - Eindhoven
Aktualisierung: 23-09-2021 19:25
Stark bew√∂lkt  
Stark bew√∂lkt  
   Wind: WSW 13 km/h
Wind: WSW 13 km/h
Temperatur: 17°C
Taupunkt: 14°C
Luftfeuchte: 83%
Luftdruck: 1017 hPa
Bewölkt: Stark bewölkt
Sichtbarkeit: More than 10 km
Bewölkung: leicht bewölkt 2200 ft,
Stark bewölkt 40000 ft
EHEH 231725Z AUTO 25007KT 230V290 9999 FEW022 BKN400 17/14 Q1017 BLU NOSIG
EHAM - Middelburg
Aktualisierung: 23-09-2021 19:25
Leichter Niederschlag m√∂glich, Stark bew√∂lkt  
Leichter Niederschlag m√∂glich, Stark bew√∂lkt  
   Wind: WSW 25.9 km/h
Wind: WSW 25.9 km/h
Temperatur: 18°C
Taupunkt: 15°C
Luftfeuchte: 83%
Luftdruck: 1015 hPa
Bewölkt: Stark bewölkt
Sichtbarkeit: More than 10 km
Bewölkung: leicht bewölkt 1700 ft,
Teilweise bewölkt 2000 ft,
Stark bewölkt 3000 ft
EHAM 231725Z 25014KT 230V290 9999 -RA FEW017 SCT020 BKN030 18/15 Q1015 NOSIG
EHAM - Delfzijl
Aktualisierung: 23-09-2021 19:25
Leichter Niederschlag m√∂glich, Stark bew√∂lkt  
Leichter Niederschlag m√∂glich, Stark bew√∂lkt  
   Wind: WSW 25.9 km/h
Wind: WSW 25.9 km/h
Temperatur: 18°C
Taupunkt: 15°C
Luftfeuchte: 83%
Luftdruck: 1015 hPa
Bewölkt: Stark bewölkt
Sichtbarkeit: More than 10 km
Bewölkung: leicht bewölkt 1700 ft,
Teilweise bewölkt 2000 ft,
Stark bewölkt 3000 ft
EHAM 231725Z 25014KT 230V290 9999 -RA FEW017 SCT020 BKN030 18/15 Q1015 NOSIG

Script entwickelt von  Saratoga-weather.org Angepasst f√ľr das Template von  Weerstation Leuven

Sie finden Wetter-Infos dieser Station auch auf:

UK Metoffice

European Weather Network

WeatherCloud

Weather Underground

AWEKAS

Neuwetter

Wettersektor

Von uns verwendete Ausr√ľstung:

Wetterstation
Davis VP2

Wetterprogramm
Meteobridge

WetterComputer
Computer

Anbieter
My provider

Davis VP2

Meteobridge

Computer

My provider